FW7988 Weather Reports


Display with metric or nautical units.
time (UTC)temp
F
wind
direction
speed
MPH
gust
MPH
rain 1hr
in
rain 24hr
in
rain mn
in
humidity
%
barometer
mb
20260509104917 71 44 0.0 5.0 0.00 0.01 0.01 98
20260509104413 71 27 3.0 5.0 0.00 0.01 0.01 98
20260509103911 71 37 3.0 5.0 0.00 0.01 0.01 98
20260509103408 71 26 2.0 3.0 0.00 0.01 0.01 98
20260509102907 71 13 3.0 3.0 0.00 0.01 0.01 98
20260509102404 71 24 2.0 3.0 0.00 0.01 0.01 98
20260509101859 71 33 2.0 2.0 0.00 0.01 0.01 98
20260509101355 71 70 1.0 1.0 0.00 0.01 0.01 98
20260509100854 71 85 1.0 2.0 0.00 0.01 0.01 98
20260509100350 71 75 0.0 0.0 0.00 0.01 0.01 98
20260509095847 71 71 1.0 2.0 0.00 0.01 0.01 98
20260509095344 71 137 0.0 0.0 0.00 0.01 0.01 98
20260509094841 71 138 0.0 0.0 0.00 0.01 0.01 98
20260509094338 71 89 0.0 1.0 0.00 0.01 0.01 98
20260509093836 71 80 2.0 2.0 0.00 0.01 0.01 98
20260509093332 71 75 0.0 0.0 0.00 0.01 0.01 98
20260509092831 71 74 1.0 2.0 0.00 0.01 0.01 97
20260509092328 71 92 0.0 0.0 0.00 0.01 0.01 97
20260509091826 71 88 2.0 3.0 0.00 0.01 0.01 97
20260509091323 71 88 0.0 1.0 0.00 0.01 0.01 97
20260509090820 71 122 0.0 0.0 0.00 0.01 0.01 97
20260509090318 71 95 3.0 3.0 0.07 0.01 0.01 97
20260509085815 71 81 2.0 2.0 0.07 0.01 0.01 97
20260509085313 71 64 0.0 2.0 0.00 0.00 0.00 97
20260509084809 71 60 2.0 2.0 0.00 0.00 0.00 97
20260509084306 71 31 1.0 2.0 0.00 0.00 0.00 97
20260509083803 71 32 3.0 3.0 0.00 0.00 0.00 96
20260509083300 71 0 3.0 3.0 0.00 0.00 0.00 96
20260509082756 71 17 0.0 1.0 0.00 0.00 0.00 96
20260509082253 71 47 2.0 2.0 0.00 0.00 0.00 96
20260509081750 71 37 0.0 0.0 0.00 0.00 0.00 96
20260509081247 72 39 0.0 0.0 0.00 0.00 0.00 95
20260509080745 72 37 0.0 0.0 0.00 0.00 0.00 95
20260509080243 72 36 0.0 0.0 0.00 0.00 0.00 95
20260509075741 72 34 0.0 0.0 0.00 0.00 0.00 95
20260509075238 72 34 0.0 0.0 0.00 0.00 0.00 95
20260509074735 72 49 0.0 0.0 0.00 0.00 0.00 95
20260509074233 72 14 0.0 2.0 0.00 0.00 0.00 95
20260509073728 72 61 1.0 1.0 0.00 0.00 0.00 94
20260509073225 72 59 2.0 5.0 0.00 0.00 0.00 94
20260509072722 72 102 1.0 2.0 0.00 0.00 0.00 94
20260509072219 72 130 3.0 5.0 0.00 0.00 0.00 94
20260509071715 72 133 1.0 2.0 0.00 0.00 0.00 94
20260509071213 72 128 1.0 2.0 0.00 0.00 0.00 94
20260509070709 72 180 1.0 2.0 0.00 0.00 0.00 94
20260509070206 72 153 3.0 3.0 0.00 0.00 0.00 94
20260509065702 72 140 1.0 2.0 0.00 0.00 0.00 94
20260509065158 72 187 3.0 5.0 0.00 0.00 0.00 93
20260509064655 72 167 0.0 2.0 0.00 0.00 0.00 93
20260509064153 72 217 0.0 1.0 0.00 0.00 0.00 93
20260509063650 72 183 1.0 2.0 0.00 0.00 0.00 93
20260509063146 72 162 3.0 6.0 0.00 0.00 0.00 93
20260509062643 72 179 4.0 7.0 0.00 0.00 0.00 93
20260509062140 72 179 3.0 5.0 0.00 0.00 0.00 93
20260509061637 72 187 8.0 9.0 0.00 0.00 0.00 93
20260509061135 72 163 6.0 8.0 0.00 0.00 0.00 93
20260509060632 72 199 5.0 7.0 0.00 0.00 0.00 93
20260509060128 72 152 5.0 8.0 0.00 0.00 0.00 93
20260509055624 72 195 5.0 8.0 0.00 0.00 0.00 93
20260509055120 72 161 5.0 9.0 0.00 0.00 0.00 93
20260509054617 72 177 5.0 8.0 0.00 0.00 0.00 93
20260509054114 72 204 6.0 7.0 0.00 0.00 0.00 93
20260509053613 72 192 7.0 10.0 0.00 0.00 0.00 93
20260509053109 71 187 1.0 9.0 0.00 0.00 0.00 93
20260509052607 71 130 5.0 7.0 0.00 0.00 0.00 93
20260509052105 71 156 1.0 7.0 0.00 0.00 0.00 93
20260509051602 71 189 5.0 6.0 0.00 0.00 0.00 93
20260509051059 71 168 2.0 5.0 0.00 0.00 0.00 93
20260509050556 71 161 0.0 2.0 0.00 0.00 0.00 93
20260509050052 71 170 3.0 6.0 0.00 0.00 0.00 92
20260509045550 71 158 3.0 7.0 0.00 0.00 0.00 92
20260509045047 71 142 3.0 8.0 0.00 0.00 0.00 92
20260509044544 71 125 4.0 5.0 0.00 0.00 0.00 92
20260509044042 71 193 1.0 2.0 0.00 0.00 0.00 92
20260509043538 71 172 3.0 5.0 0.00 0.00 0.00 92
20260509043033 72 175 0.0 2.0 0.00 0.00 0.00 91
20260509042530 72 168 2.0 2.0 0.00 0.00 0.00 91
20260509042026 72 195 2.0 2.0 0.00 0.00 0.00 91
20260509041523 72 179 2.0 3.0 0.00 0.00 0.00 90
20260509041021 73 172 1.0 3.0 0.00 0.00 0.00 90
20260509040519 73 149 3.0 6.0 0.00 0.00 0.00 90
20260509040015 73 124 1.0 5.0 0.00 0.00 0.00 90
20260509035512 72 184 2.0 5.0 0.00 0.00 0.00 90
20260509035009 72 167 1.0 2.0 0.00 0.00 0.00 90
20260509034508 72 165 2.0 3.0 0.00 0.00 0.00 90
20260509034004 72 193 0.0 1.0 0.00 0.00 0.00 90
20260509033501 72 179 0.0 0.0 0.00 0.00 0.00 90
20260509032957 72 179 0.0 1.0 0.00 0.00 0.00 90
20260509032455 72 179 0.0 1.0 0.00 0.00 0.00 89
20260509031952 72 174 0.0 2.0 0.00 0.00 0.00 89
20260509031449 73 191 1.0 3.0 0.00 0.00 0.00 89
20260509030947 73 126 2.0 2.0 0.00 0.00 0.00 88
20260509030444 73 199 1.0 3.0 0.00 0.00 0.00 88
20260509025941 73 173 2.0 5.0 0.00 0.00 0.00 88
20260509025437 73 202 3.0 8.0 0.00 0.00 0.00 87
20260509024932 73 129 4.0 5.0 0.00 0.00 0.00 87
20260509024429 73 164 3.0 6.0 0.00 0.00 0.00 87
20260509023926 73 136 3.0 3.0 0.00 0.00 0.00 87
20260509023423 73 143 4.0 5.0 0.00 0.00 0.00 87
20260509022919 73 140 2.0 5.0 0.00 0.00 0.00 87
20260509022417 73 155 0.0 2.0 0.00 0.00 0.00 86
20260509021914 73 179 1.0 3.0 0.00 0.00 0.00 86
20260509021411 73 147 3.0 3.0 0.00 0.00 0.00 87
20260509020908 73 142 2.0 2.0 0.00 0.00 0.00 86
20260509020407 74 121 1.0 2.0 0.00 0.00 0.00 86
20260509015903 74 133 3.0 6.0 0.00 0.00 0.00 86
20260509015402 74 129 4.0 7.0 0.00 0.00 0.00 85
20260509014858 74 137 3.0 5.0 0.00 0.00 0.00 85
20260509014355 74 138 6.0 9.0 0.00 0.00 0.00 85
20260509013851 74 125 7.0 9.0 0.00 0.00 0.00 84
20260509013348 75 137 7.0 9.0 0.00 0.00 0.00 84
20260509012844 75 140 5.0 9.0 0.00 0.00 0.00 83
20260509012341 75 160 3.0 7.0 0.00 0.00 0.00 82
20260509011838 75 147 4.0 6.0 0.00 0.00 0.00 82
20260509011336 76 126 2.0 6.0 0.00 0.00 0.00 81
20260509010833 76 156 5.0 6.0 0.00 0.00 0.00 81
20260509010330 76 165 3.0 6.0 0.00 0.00 0.00 81
20260509005827 76 143 3.0 7.0 0.00 0.00 0.00 81
20260509005326 76 139 5.0 7.0 0.00 0.00 0.00 80
20260509004825 76 218 2.0 5.0 0.00 0.00 0.00 80
20260509004322 76 172 4.0 7.0 0.00 0.00 0.00 80
20260509003820 76 145 4.0 6.0 0.00 0.00 0.00 80
20260509003318 76 178 5.0 7.0 0.00 0.00 0.00 80
20260509002815 76 165 3.0 6.0 0.00 0.00 0.00 79
20260509002312 77 205 5.0 7.0 0.00 0.00 0.00 79
20260509001810 76 128 4.0 7.0 0.00 0.00 0.00 79
20260509001305 77 145 3.0 6.0 0.00 0.00 0.00 79
20260509000803 77 180 5.0 8.0 0.00 0.00 0.00 78
20260509000303 77 193 2.0 7.0 0.00 0.00 0.00 78
20260508235757 77 133 5.0 8.0 0.00 0.00 0.00 77
20260508235254 77 143 1.0 6.0 0.00 0.00 0.00 78
20260508234751 77 135 7.0 9.0 0.00 0.00 0.00 78
20260508234247 77 155 6.0 8.0 0.00 0.00 0.00 78
20260508233741 77 159 4.0 8.0 0.00 0.00 0.00 77
20260508233239 77 137 3.0 9.0 0.00 0.00 0.00 77
20260508232736 77 189 6.0 11.0 0.00 0.00 0.00 77
20260508232232 77 175 6.0 10.0 0.00 0.00 0.00 76
20260508231731 77 191 3.0 7.0 0.00 0.00 0.00 76
20260508231227 77 183 4.0 11.0 0.00 0.00 0.00 76
20260508230724 77 155 7.0 11.0 0.00 0.00 0.00 76
20260508230220 78 124 8.0 10.0 0.00 0.00 0.00 75
20260508225718 78 145 7.0 9.0 0.00 0.00 0.00 74
20260508225214 78 193 6.0 8.0 0.00 0.00 0.00 75
20260508224712 78 138 7.0 11.0 0.00 0.00 0.00 74
20260508224209 78 206 4.0 9.0 0.00 0.00 0.00 74
20260508223707 78 154 5.0 9.0 0.00 0.00 0.00 75
20260508223204 78 97 4.0 5.0 0.00 0.00 0.00 74
20260508222701 78 109 3.0 9.0 0.00 0.00 0.00 74
20260508222159 78 125 5.0 9.0 0.00 0.00 0.00 74
20260508221654 78 189 4.0 9.0 0.00 0.00 0.00 74
20260508221150 78 146 7.0 10.0 0.00 0.00 0.00 73
20260508220647 78 137 4.0 8.0 0.00 0.00 0.00 74
20260508220144 78 154 6.0 9.0 0.00 0.00 0.00 73
20260508215640 79 183 9.0 13.0 0.00 0.00 0.00 72
20260508215137 79 122 5.0 8.0 0.00 0.00 0.00 71
20260508214634 79 143 4.0 11.0 0.00 0.00 0.00 71
20260508214131 80 115 4.0 8.0 0.00 0.00 0.00 71
20260508213628 80 181 4.0 13.0 0.00 0.00 0.00 70
20260508213124 80 147 5.0 7.0 0.00 0.00 0.00 70
20260508212621 80 193 7.0 10.0 0.00 0.00 0.00 70
20260508212117 80 166 6.0 11.0 0.00 0.00 0.00 70
20260508211612 81 131 5.0 11.0 0.00 0.00 0.00 69
20260508211109 80 204 9.0 11.0 0.00 0.00 0.00 71
20260508210605 80 179 7.0 9.0 0.00 0.00 0.00 70
20260508210103 81 204 4.0 8.0 0.00 0.00 0.00 69
20260508205600 80 159 6.0 8.0 0.00 0.00 0.00 70
20260508205056 80 159 4.0 6.0 0.00 0.00 0.00 70
20260508204553 80 173 7.0 9.0 0.00 0.00 0.00 70
20260508204049 80 136 8.0 10.0 0.00 0.00 0.00 69
20260508203545 80 135 7.0 13.0 0.00 0.00 0.00 70
20260508203041 80 154 7.0 9.0 0.00 0.00 0.00 69
20260508202538 79 121 2.0 5.0 0.00 0.00 0.00 70
20260508202035 79 154 2.0 3.0 0.00 0.00 0.00 72
20260508201532 79 174 4.0 8.0 0.00 0.00 0.00 71
20260508201028 79 116 3.0 8.0 0.00 0.00 0.00 72
20260508200526 78 139 3.0 5.0 0.00 0.00 0.00 71
20260508200021 79 125 5.0 9.0 0.00 0.00 0.00 71
20260508195518 79 140 1.0 6.0 0.00 0.00 0.00 71
20260508195014 80 137 2.0 7.0 0.00 0.00 0.00 70
20260508194512 79 213 5.0 7.0 0.00 0.00 0.00 71
20260508194009 78 155 6.0 9.0 0.00 0.00 0.00 72
20260508193505 78 202 3.0 6.0 0.00 0.00 0.00 73
20260508193002 77 154 7.0 8.0 0.00 0.00 0.00 73
20260508192458 77 89 5.0 7.0 0.00 0.00 0.00 73
20260508191955 77 114 6.0 8.0 0.00 0.00 0.00 74
20260508191452 77 153 5.0 8.0 0.00 0.00 0.00 73
20260508190949 77 146 6.0 8.0 0.00 0.00 0.00 73
20260508190447 78 122 4.0 9.0 0.00 0.00 0.00 71
20260508185942 77 168 0.0 5.0 0.00 0.00 0.00 72
20260508185440 77 141 3.0 6.0 0.00 0.00 0.00 73
20260508184937 76 135 2.0 5.0 0.00 0.00 0.00 74
20260508184435 76 130 5.0 7.0 0.00 0.00 0.00 74
20260508183931 76 133 3.0 6.0 0.00 0.00 0.00 73
20260508183428 76 157 6.0 7.0 0.00 0.00 0.00 74
20260508182923 75 158 3.0 3.0 0.00 0.00 0.00 74
20260508182420 75 140 5.0 8.0 0.00 0.00 0.00 74
20260508181915 75 115 5.0 6.0 0.00 0.00 0.00 74
20260508181412 75 61 6.0 9.0 0.00 0.00 0.00 73
20260508180910 75 65 3.0 9.0 0.00 0.00 0.00 74
20260508180406 75 93 4.0 8.0 0.00 0.00 0.00 73
20260508175902 75 81 7.0 9.0 0.00 0.00 0.00 74
20260508175359 75 113 6.0 8.0 0.00 0.00 0.00 74
20260508174857 75 73 6.0 9.0 0.00 0.00 0.00 73
20260508174354 76 70 6.0 7.0 0.00 0.00 0.00 73
20260508173851 77 68 2.0 5.0 0.00 0.00 0.00 72
20260508173348 77 101 0.0 2.0 0.00 0.00 0.00 72
20260508172843 78 54 4.0 5.0 0.00 0.00 0.00 70
20260508172341 78 56 2.0 5.0 0.00 0.00 0.00 69
20260508171837 77 39 4.0 5.0 0.00 0.00 0.00 71
20260508171333 77 353 2.0 3.0 0.00 0.00 0.00 73
20260508170830 76 320 4.0 5.0 0.00 0.00 0.00 74
20260508170329 76 240 3.0 5.0 0.00 0.00 0.00 74
20260508165825 77 320 5.0 6.0 0.00 0.00 0.00 73
20260508165322 76 11 3.0 5.0 0.00 0.00 0.00 73
20260508164818 75 325 3.0 3.0 0.00 0.00 0.00 74
20260508164315 75 356 3.0 3.0 0.00 0.00 0.00 73
20260508163813 76 47 2.0 3.0 0.00 0.00 0.00 72
20260508163310 75 144 0.0 2.0 0.00 0.00 0.00 72
20260508162806 75 199 2.0 3.0 0.00 0.00 0.00 73
20260508162306 75 222 3.0 5.0 0.00 0.00 0.00 73
20260508161800 74 72 1.0 1.0 0.00 0.00 0.00 71
20260508161257 72 183 1.0 2.0 0.00 0.00 0.00 74
20260508160755 72 151 2.0 6.0 0.00 0.00 0.00 74
20260508160253 71 131 1.0 3.0 0.00 0.00 0.00 75
20260508155749 70 145 4.0 5.0 0.00 0.00 0.00 75
20260508155246 69 80 2.0 3.0 0.00 0.00 0.00 76
20260508154743 69 164 2.0 5.0 0.00 0.00 0.00 76
20260508154241 69 174 3.0 5.0 0.00 0.00 0.00 75
20260508153737 68 63 0.0 1.0 0.00 0.00 0.00 77
20260508153235 67 178 3.0 3.0 0.00 0.00 0.00 78
20260508152731 66 191 2.0 5.0 0.00 0.00 0.00 79
20260508152227 66 251 3.0 5.0 0.00 0.00 0.00 80
20260508151723 66 137 3.0 5.0 0.00 0.00 0.00 79
20260508151220 66 138 3.0 5.0 0.00 0.00 0.00 80
20260508150717 66 194 1.0 2.0 0.00 0.00 0.00 80
20260508150214 66 159 0.0 5.0 0.00 0.00 0.00 79
20260508145709 65 207 2.0 2.0 0.00 0.00 0.00 80
20260508145206 65 132 2.0 5.0 0.00 0.00 0.00 79
20260508144703 65 165 2.0 3.0 0.00 0.00 0.00 79
20260508144201 64 115 1.0 1.0 0.00 0.00 0.00 80
20260508143658 64 100 1.0 2.0 0.00 0.00 0.00 80
20260508143155 64 66 1.0 2.0 0.00 0.00 0.00 80
20260508142651 63 122 0.0 1.0 0.00 0.00 0.00 81
20260508142148 63 136 2.0 3.0 0.00 0.00 0.00 81
20260508141644 63 102 1.0 1.0 0.00 0.00 0.00 81
20260508141142 62 130 3.0 3.0 0.00 0.00 0.00 81
20260508140640 62 57 2.0 5.0 0.00 0.00 0.00 81
20260508140136 62 86 2.0 5.0 0.00 0.00 0.00 81
20260508135632 62 36 3.0 5.0 0.00 0.00 0.00 81
20260508135128 62 53 4.0 5.0 0.00 0.00 0.00 81
20260508134625 62 52 3.0 5.0 0.00 0.00 0.00 81
20260508134122 62 62 1.0 2.0 0.00 0.00 0.00 81
20260508133618 62 44 1.0 5.0 0.00 0.00 0.00 81
20260508133116 62 54 3.0 3.0 0.00 0.00 0.00 81
20260508132614 62 64 1.0 5.0 0.00 0.00 0.00 82
20260508132110 62 62 1.0 2.0 0.00 0.00 0.00 82
20260508131606 61 53 2.0 2.0 0.00 0.00 0.00 82
20260508131103 61 67 3.0 5.0 0.00 0.00 0.00 82
20260508130559 61 56 0.0 2.0 0.00 0.00 0.00 83
20260508130056 61 12 0.0 0.0 0.00 0.00 0.00 83
20260508125551 61 350 1.0 2.0 0.00 0.00 0.00 83
20260508125050 61 1 1.0 2.0 0.00 0.00 0.00 83
20260508124548 61 340 0.0 1.0 0.00 0.00 0.00 83
20260508124044 61 1 2.0 5.0 0.00 0.00 0.00 83
20260508123543 61 20 1.0 2.0 0.00 0.00 0.00 83
20260508123039 60 33 1.0 2.0 0.00 0.00 0.00 84
20260508122536 60 25 1.0 2.0 0.00 0.00 0.00 84
20260508122033 60 355 1.0 3.0 0.00 0.00 0.00 84
20260508121531 60 34 0.0 2.0 0.00 0.00 0.00 84
20260508121029 60 31 2.0 2.0 0.00 0.00 0.00 84
20260508120526 60 35 0.0 0.0 0.00 0.00 0.00 84
20260508120024 60 349 2.0 2.0 0.00 0.00 0.00 84
20260508115521 60 53 2.0 5.0 0.00 0.00 0.00 85
20260508115018 60 355 1.0 3.0 0.00 0.00 0.00 85
20260508114515 60 56 1.0 1.0 0.00 0.00 0.00 85
20260508114011 60 33 3.0 3.0 0.00 0.00 0.00 84
20260508113509 61 3 3.0 3.0 0.00 0.00 0.00 84
20260508113006 61 30 3.0 3.0 0.00 0.00 0.00 84
20260508112502 61 9 0.0 1.0 0.00 0.00 0.00 84
20260508111959 61 2 0.0 0.0 0.00 0.00 0.00 83
20260508111456 60 3 0.0 0.0 0.00 0.00 0.00 83
20260508110953 60 351 0.0 0.0 0.00 0.00 0.00 83
20260508110451 61 351 0.0 0.0 0.00 0.00 0.00 82
20260508105950 61 351 0.0 1.0 0.00 0.00 0.00 82
20260508105447 61 359 1.0 2.0 0.00 0.00 0.00 82